Wind_Speed
47 46 46 44 43 43 43 43 42 41 41 41 41 41 42 41 40 39 37 36 35 34 33 33 33 33 33 32 34 34 35 36 38 41 41 41 42 43
46 45 44 42 42 42 42 41 41 40 40 40 40 40 40 39 38 36 35 34 32 32 31 30 31 31 32 30 30 30 32 34 35 37 39 40 41 42
44 43 42 41 41 40 40 40 39 39 39 38 38 38 37 37 35 34 33 32 31 31 30 29 29 29 28 28 28 29 29 30 32 35 37 38 39 40
42 41 40 40 39 38 38 38 37 37 37 37 37 36 36 35 34 32 32 31 31 30 29 28 28 27 27 27 28 27 28 29 32 34 35 37 38 39
40 39 38 38 37 37 36 36 36 36 36 36 36 35 35 33 33 32 32 31 31 30 29 28 28 27 28 28 28 29 28 29 31 32 35 37 39 41
37 36 36 35 35 34 34 34 34 34 34 34 34 34 33 33 33 32 32 31 31 31 30 30 29 29 29 29 29 29 30 31 33 34 35 37 39 41
34 34 34 33 33 32 32 33 33 33 33 33 33 33 33 33 32 32 32 32 32 32 32 32 31 31 31 31 32 32 33 34 35 36 37 38 39 41
32 31 31 31 31 31 31 32 32 33 33 33 33 33 33 33 32 33 33 33 33 34 34 34 34 34 34 35 35 36 36 37 37 39 40 41 42 43
30 29 29 29 30 30 31 32 32 32 32 33 33 33 33 33 33 34 34 35 35 35 36 36 36 37 37 38 38 39 40 40 41 42 43 44 44 45
28 28 28 28 29 30 30 31 31 32 32 33 33 34 34 35 35 35 36 36 37 37 37 38 38 39 40 41 41 42 43 43 44 45 46 47 48 48
27 28 28 29 29 30 30 31 32 32 33 34 34 35 35 36 37 37 38 38 38 39 39 40 41 42 42 43 44 44 45 46 47 47 48 49 50 50
28 28 29 29 30 31 31 32 33 33 34 35 36 36 37 38 38 39 39 40 40 41 41 42 43 44 45 46 46 47 47 47 48 49 49 50 51 52
29 29 30 30 31 32 33 34 34 35 36 36 37 38 38 39 40 40 41 42 42 43 43 44 45 46 47 47 48 48 49 49 49 50 51 52 52 53
30 31 31 32 33 34 35 35 36 37 37 38 39 39 40 40 41 42 43 44 45 45 46 46 47 48 48 48 49 50 50 51 51 51 51 52 52 53
32 32 33 34 35 36 36 37 38 38 39 39 40 40 41 42 43 44 45 46 47 47 48 48 49 49 49 49 49 51 51 51 52 51 50 50 51 51
33 34 34 35 36 37 37 38 39 39 40 41 41 42 43 44 45 46 47 48 48 49 50 50 49 49 49 49 49 50 51 51 52 52 50 50 50 50
35 36 36 37 38 38 39 39 40 41 41 42 42 43 44 45 46 47 48 49 50 51 51 51 49 49 49 49 49 50 50 50 50 50 48 47 48 47
37 38 38 39 39 40 40 40 41 42 42 43 44 45 46 46 47 48 50 50 50 51 51 51 50 50 49 48 49 49 49 49 48 47 46 44 43 44
38 39 39 40 40 41 41 42 42 43 44 44 45 46 46 47 49 50 50 50 50 50 51 51 51 51 49 48 47 49 49 48 47 45 44 41 39 40
39 40 40 41 41 41 42 43 43 44 44 45 45 46 47 48 49 50 50 50 50 50 51 52 52 51 50 48 46 46 49 48 46 44 43 40 38 37
40 40 40 40 41 42 42 43 43 43 44 45 46 47 48 48 49 50 51 51 51 51 52 52 52 52 50 48 46 45 46 46 45 43 42 40 38 36
40 40 40 40 41 41 42 42 42 43 44 46 47 48 48 49 50 50 51 51 51 51 51 51 51 51 50 48 46 44 44 45 45 44 43 41 39 36
40 40 40 41 41 41 41 42 43 44 45 46 47 48 49 50 50 50 50 51 51 51 51 50 50 50 49 48 47 44 43 43 44 43 42 43 41 39
Wind_Direction
288 289 289 290 290 291 292 293 294 294 294 295 296 296 297 298 299 298 298 297 297 295 293 290 289 287 285 283 279 272 266 263 262 258 258 258 257 255
287 288 288 289 290 291 292 293 294 294 295 296 296 296 297 298 298 299 298 298 298 298 295 294 291 289 287 285 282 275 270 266 262 259 259 258 256 254
286 286 287 289 290 291 292 293 294 295 296 296 296 297 297 299 297 298 299 299 298 298 296 295 293 289 288 285 284 279 273 266 262 259 259 259 258 254
284 286 287 288 290 291 292 293 294 296 296 297 297 297 298 298 297 297 298 299 299 299 298 296 295 291 288 287 286 284 278 271 264 261 261 260 257 253
283 284 286 287 289 291 292 294 295 296 297 298 298 297 297 297 296 296 297 298 298 299 298 297 296 294 291 288 286 285 280 274 268 265 263 260 258 257
282 284 285 287 289 291 293 295 296 297 298 298 298 298 298 297 296 296 296 297 298 298 298 297 295 294 291 289 287 284 280 276 273 270 267 264 262 260
281 283 284 287 289 291 294 295 297 298 298 298 298 298 298 297 297 296 296 297 297 297 297 296 294 293 292 290 288 284 281 279 276 274 271 269 266 264
280 282 285 288 290 292 294 296 298 298 299 299 299 298 298 298 297 297 297 297 297 296 296 295 293 292 291 290 288 286 283 280 278 275 273 271 268 266
280 283 285 288 291 293 295 296 298 298 299 299 298 298 298 298 297 297 297 297 296 296 296 294 293 292 291 290 288 286 284 282 281 278 275 273 271 269
280 283 286 289 292 294 296 297 297 298 299 299 299 298 298 298 298 298 297 297 297 296 295 294 293 293 292 290 288 286 284 282 280 279 276 274 272 270
281 284 287 291 293 295 296 297 298 298 299 299 299 298 298 298 298 297 297 297 297 297 296 295 294 293 292 291 289 287 285 283 281 280 278 276 274 272
282 286 289 291 293 295 296 297 298 299 299 299 298 298 298 298 298 298 298 297 298 298 297 296 295 294 293 292 290 288 286 284 283 281 279 277 275 273
285 287 290 291 293 295 296 297 298 298 298 298 298 298 298 299 299 298 298 298 298 298 298 297 297 296 295 293 291 289 287 286 284 282 280 278 276 274
285 288 290 292 293 295 296 296 297 298 298 299 299 299 299 299 299 298 298 299 299 299 299 299 298 297 296 294 292 291 289 288 286 284 282 279 277 275
286 289 291 292 293 295 296 296 296 297 298 299 299 299 299 299 299 299 299 299 299 299 300 300 300 299 297 295 293 292 291 290 288 285 283 280 278 275
288 290 291 292 293 295 296 296 296 297 298 299 299 299 299 300 300 300 300 300 300 300 300 300 301 300 298 296 295 293 292 290 289 288 286 283 280 276
288 290 291 292 293 294 295 296 296 297 298 299 299 300 300 301 300 301 301 301 301 301 301 301 301 301 300 298 297 295 293 292 291 289 288 285 282 278
288 289 291 292 293 294 295 295 296 297 298 298 299 300 300 301 301 301 302 302 302 302 301 301 301 302 302 300 298 297 295 294 293 292 290 287 283 279
288 289 290 291 293 294 295 296 297 297 298 299 300 300 301 301 302 302 302 302 302 302 302 302 302 302 302 301 299 297 296 296 295 294 291 288 284 280
287 289 290 292 293 294 295 296 297 298 299 300 300 301 301 302 303 303 303 303 302 302 303 303 303 303 303 301 299 297 295 295 294 293 291 289 285 281
288 289 291 292 293 295 296 297 298 299 300 301 301 302 302 302 303 303 303 302 302 303 303 303 303 303 303 302 300 297 295 294 294 293 290 288 285 281
289 290 291 293 294 296 297 298 299 300 301 302 302 302 302 303 303 303 303 303 303 303 303 303 303 303 303 301 300 298 295 293 293 292 290 287 284 280
289 291 292 294 296 297 298 299 300 301 302 303 303 303 303 303 304 304 304 304 304 304 304 303 303 303 302 301 301 299 296 294 293 292 291 288 286 282
Height
5751 5748 5745 5742 5738 5735 5731 5727 5724 5721 5717 5713 5709 5704 5700 5696 5692 5688 5684 5680 5677 5673 5670 5666 5664 5661 5658 5656 5654 5653 5653 5653 5656 5658 5661 5664 5666 5669
5741 5738 5735 5731 5728 5725 5721 5718 5714 5711 5707 5703 5699 5695 5691 5687 5683 5679 5676 5672 5668 5664 5661 5658 5655 5653 5650 5648 5647 5645 5645 5645 5646 5648 5651 5653 5655 5658
5730 5727 5724 5721 5718 5715 5711 5708 5704 5701 5698 5694 5690 5686 5682 5679 5675 5671 5668 5664 5661 5657 5654 5651 5648 5645 5643 5641 5640 5638 5637 5638 5639 5640 5641 5643 5645 5647
5720 5717 5714 5711 5708 5705 5702 5699 5695 5692 5689 5685 5681 5678 5674 5670 5667 5663 5660 5657 5653 5650 5646 5644 5641 5639 5637 5635 5633 5632 5631 5630 5631 5631 5632 5633 5634 5636
5709 5707 5704 5702 5699 5696 5693 5690 5686 5683 5679 5676 5673 5669 5666 5662 5659 5656 5652 5649 5646 5643 5640 5637 5634 5632 5630 5628 5626 5625 5623 5623 5623 5622 5623 5623 5624 5626
5699 5697 5695 5693 5690 5687 5684 5681 5678 5674 5671 5668 5664 5661 5658 5654 5651 5648 5645 5642 5639 5635 5632 5630 5627 5625 5623 5621 5619 5617 5616 5615 5614 5613 5613 5613 5614 5615
5690 5688 5686 5684 5681 5678 5676 5672 5669 5666 5663 5660 5656 5653 5650 5646 5643 5640 5637 5634 5631 5628 5625 5622 5619 5617 5615 5612 5610 5609 5607 5606 5605 5604 5603 5603 5603 5603
5681 5679 5677 5675 5673 5670 5667 5664 5661 5658 5655 5651 5648 5645 5641 5638 5635 5632 5628 5625 5622 5620 5616 5613 5610 5608 5605 5603 5601 5599 5597 5595 5594 5593 5592 5591 5591 5591
5672 5671 5669 5667 5664 5661 5659 5656 5652 5649 5646 5643 5640 5636 5633 5630 5626 5623 5620 5616 5613 5610 5606 5603 5601 5598 5595 5592 5590 5587 5585 5583 5581 5580 5578 5577 5577 5576
5664 5662 5660 5658 5655 5653 5650 5647 5644 5641 5638 5634 5631 5627 5624 5620 5617 5614 5610 5607 5603 5600 5596 5593 5590 5587 5583 5580 5577 5574 5572 5570 5567 5565 5563 5562 5561 5560
5656 5654 5652 5649 5647 5644 5641 5638 5635 5632 5629 5625 5622 5618 5614 5611 5607 5604 5600 5596 5593 5589 5585 5581 5578 5574 5570 5567 5563 5560 5557 5554 5552 5550 5547 5546 5544 5543
5647 5645 5643 5641 5638 5635 5632 5629 5626 5623 5620 5616 5612 5608 5604 5600 5597 5593 5589 5585 5581 5577 5573 5569 5565 5561 5557 5552 5548 5545 5541 5538 5536 5533 5530 5528 5526 5525
5638 5636 5634 5632 5629 5626 5623 5620 5617 5613 5610 5606 5602 5598 5594 5590 5586 5582 5577 5573 5569 5565 5561 5556 5551 5547 5542 5537 5533 5529 5525 5522 5519 5516 5513 5510 5508 5507
5629 5627 5625 5623 5620 5617 5614 5610 5607 5603 5599 5596 5592 5587 5583 5579 5574 5570 5565 5561 5556 5552 5547 5542 5537 5532 5527 5522 5517 5512 5508 5504 5501 5498 5495 5492 5489 5488
5620 5618 5616 5613 5610 5607 5604 5600 5596 5593 5589 5585 5580 5576 5572 5567 5562 5558 5553 5548 5543 5538 5533 5528 5523 5517 5512 5507 5501 5495 5491 5486 5482 5480 5477 5474 5471 5469
5611 5608 5606 5603 5600 5596 5593 5589 5585 5582 5577 5573 5569 5564 5560 5555 5550 5545 5540 5534 5529 5524 5519 5514 5508 5503 5497 5491 5485 5479 5473 5469 5464 5460 5458 5455 5452 5450
5601 5598 5595 5592 5589 5585 5582 5578 5574 5570 5566 5562 5557 5552 5547 5542 5537 5532 5526 5521 5515 5509 5504 5499 5493 5488 5482 5476 5470 5463 5457 5452 5447 5444 5441 5438 5434 5432
5590 5587 5584 5581 5578 5574 5571 5567 5563 5559 5554 5550 5545 5540 5535 5529 5524 5519 5513 5507 5501 5494 5488 5483 5478 5473 5468 5461 5454 5448 5442 5436 5432 5428 5424 5422 5419 5415
5579 5576 5573 5570 5566 5563 5559 5555 5551 5547 5542 5537 5532 5527 5522 5516 5511 5505 5499 5493 5487 5480 5474 5468 5462 5457 5453 5448 5441 5432 5426 5421 5417 5413 5409 5407 5404 5401
5568 5565 5562 5558 5555 5551 5547 5543 5539 5534 5530 5525 5520 5514 5509 5503 5497 5491 5485 5479 5473 5467 5460 5453 5447 5442 5437 5432 5427 5419 5411 5406 5402 5398 5394 5392 5390 5388
5557 5553 5550 5547 5543 5539 5535 5531 5526 5522 5517 5512 5507 5501 5496 5490 5484 5477 5471 5465 5459 5453 5446 5439 5432 5427 5421 5416 5412 5406 5398 5391 5387 5384 5381 5378 5376 5375
5545 5542 5539 5535 5532 5528 5523 5519 5514 5510 5505 5500 5494 5488 5482 5476 5470 5463 5457 5451 5444 5438 5431 5425 5418 5411 5406 5400 5396 5391 5385 5378 5373 5370 5366 5363 5361 5362
5534 5531 5527 5524 5520 5516 5512 5507 5502 5497 5492 5487 5481 5475 5469 5462 5456 5449 5443 5436 5430 5423 5417 5410 5404 5397 5391 5385 5380 5376 5371 5365 5360 5356 5353 5348 5346 5346